Year,Month,Day,Hour,Minute,Value (Times are PST for temperature in C)
2018,08,08,00,00,19.20
2018,08,08,00,01,19.20
2018,08,08,00,02,19.20
2018,08,08,00,03,19.20
2018,08,08,00,04,19.20
2018,08,08,00,05,19.20
2018,08,08,00,06,19.10
2018,08,08,00,07,19.10
2018,08,08,00,08,19.10
2018,08,08,00,09,19.10
2018,08,08,00,10,19.10
2018,08,08,00,11,19.10
2018,08,08,00,12,19.10
2018,08,08,00,13,19.10
2018,08,08,00,14,19.10
2018,08,08,00,15,19.10
2018,08,08,00,16,19.00
2018,08,08,00,17,19.00
2018,08,08,00,18,19.00
2018,08,08,00,19,19.00
2018,08,08,00,20,19.00
2018,08,08,00,21,19.00
2018,08,08,00,22,19.00
2018,08,08,00,23,19.00
2018,08,08,00,24,19.00
2018,08,08,00,25,19.00
2018,08,08,00,26,19.00
2018,08,08,00,27,19.00
2018,08,08,00,28,19.00
2018,08,08,00,29,19.00
2018,08,08,00,30,18.90
2018,08,08,00,31,18.90
2018,08,08,00,32,18.90
2018,08,08,00,33,18.90
2018,08,08,00,34,18.90
2018,08,08,00,35,18.90
2018,08,08,00,36,18.90
2018,08,08,00,37,18.80
2018,08,08,00,38,18.80
2018,08,08,00,39,18.80
2018,08,08,00,40,18.80
2018,08,08,00,41,18.80
2018,08,08,00,42,18.80
2018,08,08,00,43,18.80
2018,08,08,00,44,18.80
2018,08,08,00,45,18.70
2018,08,08,00,46,18.70
2018,08,08,00,47,18.70
2018,08,08,00,48,18.70
2018,08,08,00,49,18.70
2018,08,08,00,50,18.70
2018,08,08,00,51,18.60
2018,08,08,00,52,18.60
2018,08,08,00,53,18.60
2018,08,08,00,54,18.60
2018,08,08,00,55,18.60
2018,08,08,00,56,18.60
2018,08,08,00,57,18.50
2018,08,08,00,58,18.50
2018,08,08,00,59,18.50
2018,08,08,01,00,18.50
2018,08,08,01,01,18.50
2018,08,08,01,02,18.40
2018,08,08,01,03,18.40
2018,08,08,01,04,18.40
2018,08,08,01,05,18.40
2018,08,08,01,06,18.40
2018,08,08,01,07,18.40
2018,08,08,01,08,18.40
2018,08,08,01,09,18.30
2018,08,08,01,10,18.30
2018,08,08,01,11,18.30
2018,08,08,01,12,18.30
2018,08,08,01,13,18.30
2018,08,08,01,14,18.30
2018,08,08,01,15,18.30
2018,08,08,01,16,18.30
2018,08,08,01,17,18.30
2018,08,08,01,18,18.30
2018,08,08,01,19,18.40
2018,08,08,01,20,18.40
2018,08,08,01,21,18.40
2018,08,08,01,22,18.40
2018,08,08,01,23,18.40
2018,08,08,01,24,18.30
2018,08,08,01,25,18.30
2018,08,08,01,26,18.30
2018,08,08,01,27,18.30
2018,08,08,01,28,18.30
2018,08,08,01,29,18.30
2018,08,08,01,30,18.30
2018,08,08,01,31,18.20
2018,08,08,01,32,18.20
2018,08,08,01,33,18.20
2018,08,08,01,34,18.20
2018,08,08,01,35,18.20
2018,08,08,01,36,18.20
2018,08,08,01,37,18.10
2018,08,08,01,38,18.10
2018,08,08,01,39,18.10
2018,08,08,01,40,18.10
2018,08,08,01,41,18.10
2018,08,08,01,42,18.20
2018,08,08,01,43,18.20
2018,08,08,01,44,18.20
2018,08,08,01,45,18.20
2018,08,08,01,46,18.20
2018,08,08,01,47,18.20
2018,08,08,01,48,18.20
2018,08,08,01,49,18.20
2018,08,08,01,50,18.20
2018,08,08,01,51,18.20
2018,08,08,01,52,18.20
2018,08,08,01,53,18.10
2018,08,08,01,54,18.10
2018,08,08,01,55,18.10
2018,08,08,01,56,18.10
2018,08,08,01,57,18.10
2018,08,08,01,58,18.10
2018,08,08,01,59,18.10
2018,08,08,02,00,18.10
2018,08,08,02,01,18.10
2018,08,08,02,02,18.10
2018,08,08,02,03,18.10
2018,08,08,02,04,18.10
2018,08,08,02,05,18.10
2018,08,08,02,06,18.10
2018,08,08,02,07,18.10
2018,08,08,02,08,18.10
2018,08,08,02,09,18.10
2018,08,08,02,10,18.10
2018,08,08,02,11,18.10
2018,08,08,02,12,18.10
2018,08,08,02,13,18.00
2018,08,08,02,14,18.00
2018,08,08,02,15,18.00
2018,08,08,02,16,18.00
2018,08,08,02,17,18.00
2018,08,08,02,18,18.00
2018,08,08,02,19,17.90
2018,08,08,02,20,17.90
2018,08,08,02,21,17.90
2018,08,08,02,22,17.90
2018,08,08,02,23,17.90
2018,08,08,02,24,17.90
2018,08,08,02,25,17.90
2018,08,08,02,26,17.90
2018,08,08,02,27,17.90
2018,08,08,02,28,17.90
2018,08,08,02,29,17.80
2018,08,08,02,30,17.80
2018,08,08,02,31,17.80
2018,08,08,02,32,17.80
2018,08,08,02,33,17.80
2018,08,08,02,34,17.80
2018,08,08,02,35,17.80
2018,08,08,02,36,17.80
2018,08,08,02,37,17.80
2018,08,08,02,38,17.80
2018,08,08,02,39,17.80
2018,08,08,02,40,17.80
2018,08,08,02,41,17.80
2018,08,08,02,42,17.70
2018,08,08,02,43,17.70
2018,08,08,02,44,17.70
2018,08,08,02,45,17.70
2018,08,08,02,46,17.70
2018,08,08,02,47,17.70
2018,08,08,02,48,17.70
2018,08,08,02,49,17.70
2018,08,08,02,50,17.70
2018,08,08,02,51,17.60
2018,08,08,02,52,17.60
2018,08,08,02,53,17.60
2018,08,08,02,54,17.60
2018,08,08,02,55,17.60
2018,08,08,02,56,17.60
2018,08,08,02,57,17.60
2018,08,08,02,58,17.60
2018,08,08,02,59,17.60
2018,08,08,03,00,17.60
2018,08,08,03,01,17.60
2018,08,08,03,02,17.60
2018,08,08,03,03,17.60
2018,08,08,03,04,17.50
2018,08,08,03,05,17.50
2018,08,08,03,06,17.40
2018,08,08,03,07,17.40
2018,08,08,03,08,17.40
2018,08,08,03,09,17.40
2018,08,08,03,10,17.40
2018,08,08,03,11,17.40
2018,08,08,03,12,17.30
2018,08,08,03,13,17.30
2018,08,08,03,14,17.30
2018,08,08,03,15,17.30
2018,08,08,03,16,17.30
2018,08,08,03,17,17.30
2018,08,08,03,18,17.30
2018,08,08,03,19,17.20
2018,08,08,03,20,17.20
2018,08,08,03,21,17.20
2018,08,08,03,22,17.20
2018,08,08,03,23,17.20
2018,08,08,03,24,17.20
2018,08,08,03,25,17.20
2018,08,08,03,26,17.20
2018,08,08,03,27,17.10
2018,08,08,03,28,17.10
2018,08,08,03,29,17.10
2018,08,08,03,30,17.10
2018,08,08,03,31,17.10
2018,08,08,03,32,17.10
2018,08,08,03,33,17.10
2018,08,08,03,34,17.10
2018,08,08,03,35,17.10
2018,08,08,03,36,17.10
2018,08,08,03,37,17.20
2018,08,08,03,38,17.10
2018,08,08,03,39,17.20
2018,08,08,03,40,17.10
2018,08,08,03,41,17.10
2018,08,08,03,42,17.10
2018,08,08,03,43,17.10
2018,08,08,03,44,17.10
2018,08,08,03,45,17.10
2018,08,08,03,46,17.10
2018,08,08,03,47,17.10
2018,08,08,03,48,17.10
2018,08,08,03,49,17.00
2018,08,08,03,50,17.00
2018,08,08,03,51,17.00
2018,08,08,03,52,17.00
2018,08,08,03,53,16.90
2018,08,08,03,54,16.90
2018,08,08,03,55,16.90
2018,08,08,03,56,16.90
2018,08,08,03,57,16.90
2018,08,08,03,58,16.90
2018,08,08,03,59,16.90
2018,08,08,04,00,16.80
2018,08,08,04,01,16.80
2018,08,08,04,02,16.80
2018,08,08,04,03,16.80
2018,08,08,04,04,16.80
2018,08,08,04,05,16.80
2018,08,08,04,06,16.80
2018,08,08,04,07,16.80
2018,08,08,04,08,16.80
2018,08,08,04,09,16.80
2018,08,08,04,10,16.80
2018,08,08,04,11,16.80
2018,08,08,04,12,16.80
2018,08,08,04,13,16.80
2018,08,08,04,14,16.80
2018,08,08,04,15,16.80
2018,08,08,04,16,16.80
2018,08,08,04,17,16.80
2018,08,08,04,18,16.80
2018,08,08,04,19,16.80
2018,08,08,04,20,16.80
2018,08,08,04,21,16.80
2018,08,08,04,22,16.80
2018,08,08,04,23,16.80
2018,08,08,04,24,16.80
2018,08,08,04,25,16.80
2018,08,08,04,26,16.80
2018,08,08,04,27,16.80
2018,08,08,04,28,16.80
2018,08,08,04,29,16.70
2018,08,08,04,30,16.70
2018,08,08,04,31,16.80
2018,08,08,04,32,16.80
2018,08,08,04,33,16.80
2018,08,08,04,34,16.80
2018,08,08,04,35,16.70
2018,08,08,04,36,16.70
2018,08,08,04,37,16.70
2018,08,08,04,38,16.70
2018,08,08,04,39,16.70
2018,08,08,04,40,16.70
2018,08,08,04,41,16.70
2018,08,08,04,42,16.70
2018,08,08,04,43,16.70
2018,08,08,04,44,16.70
2018,08,08,04,45,16.70
2018,08,08,04,46,16.70
2018,08,08,04,47,16.70
2018,08,08,04,48,16.70
2018,08,08,04,49,16.70
2018,08,08,04,50,16.70
2018,08,08,04,51,16.70
2018,08,08,04,52,16.60
2018,08,08,04,53,16.60
2018,08,08,04,54,16.60
2018,08,08,04,55,16.60
2018,08,08,04,56,16.60
2018,08,08,04,57,16.60
2018,08,08,04,58,16.60
2018,08,08,04,59,16.60
2018,08,08,05,00,16.60
2018,08,08,05,01,16.60
2018,08,08,05,02,16.60
2018,08,08,05,03,16.60
2018,08,08,05,04,16.50
2018,08,08,05,05,16.50
2018,08,08,05,06,16.50
2018,08,08,05,07,16.50
2018,08,08,05,08,16.40
2018,08,08,05,09,16.40
2018,08,08,05,10,16.40
2018,08,08,05,11,16.40
2018,08,08,05,12,16.40
2018,08,08,05,13,16.40
2018,08,08,05,14,16.40
2018,08,08,05,15,16.40
2018,08,08,05,16,16.30
2018,08,08,05,17,16.30
2018,08,08,05,18,16.30
2018,08,08,05,19,16.30
2018,08,08,05,20,16.30
2018,08,08,05,21,16.30
2018,08,08,05,22,16.20
2018,08,08,05,23,16.20
2018,08,08,05,24,16.20
2018,08,08,05,25,16.20
2018,08,08,05,26,16.20
2018,08,08,05,27,16.20
2018,08,08,05,28,16.10
2018,08,08,05,29,16.10
2018,08,08,05,30,16.10
2018,08,08,05,31,16.10
2018,08,08,05,32,16.10
2018,08,08,05,33,16.10
2018,08,08,05,34,16.10
2018,08,08,05,35,16.10
2018,08,08,05,36,16.00
2018,08,08,05,37,16.00
2018,08,08,05,38,16.00
2018,08,08,05,39,16.00
2018,08,08,05,40,16.00
2018,08,08,05,41,16.00
2018,08,08,05,42,16.10
2018,08,08,05,43,16.10
2018,08,08,05,44,16.00
2018,08,08,05,45,16.00
2018,08,08,05,46,16.00
2018,08,08,05,47,16.00
2018,08,08,05,48,16.00
2018,08,08,05,49,16.00
2018,08,08,05,50,16.00
2018,08,08,05,51,15.90
2018,08,08,05,52,15.90
2018,08,08,05,53,15.90
2018,08,08,05,54,15.90
2018,08,08,05,55,15.90
2018,08,08,05,56,15.90
2018,08,08,05,57,15.90
2018,08,08,05,58,15.90
2018,08,08,05,59,15.80
2018,08,08,06,00,15.80
2018,08,08,06,01,15.80
2018,08,08,06,02,15.80
2018,08,08,06,03,15.80
2018,08,08,06,04,15.80
2018,08,08,06,05,15.70
2018,08,08,06,06,15.70
2018,08,08,06,07,15.70
2018,08,08,06,08,15.70
2018,08,08,06,09,15.70
2018,08,08,06,10,15.70
2018,08,08,06,11,15.70
2018,08,08,06,12,15.70
2018,08,08,06,13,15.70
2018,08,08,06,14,15.70
2018,08,08,06,15,15.60
2018,08,08,06,16,15.60
2018,08,08,06,17,15.60
2018,08,08,06,18,15.60
2018,08,08,06,19,15.60
2018,08,08,06,20,15.60
2018,08,08,06,21,15.60
2018,08,08,06,22,15.60
2018,08,08,06,23,15.60
2018,08,08,06,24,15.60
2018,08,08,06,25,15.60
2018,08,08,06,26,15.60
2018,08,08,06,27,15.60
2018,08,08,06,28,15.60
2018,08,08,06,29,15.60
2018,08,08,06,30,15.60
2018,08,08,06,31,15.60
2018,08,08,06,32,15.60
2018,08,08,06,33,15.60
2018,08,08,06,34,15.60
2018,08,08,06,35,15.60
2018,08,08,06,36,15.60
2018,08,08,06,37,15.60
2018,08,08,06,38,15.60
2018,08,08,06,39,15.60
2018,08,08,06,40,15.60
2018,08,08,06,41,15.60
2018,08,08,06,42,15.60
2018,08,08,06,43,15.60
2018,08,08,06,44,15.60
2018,08,08,06,45,15.60
2018,08,08,06,46,15.60
2018,08,08,06,47,15.60
2018,08,08,06,48,15.60
2018,08,08,06,49,15.60
2018,08,08,06,50,15.60
2018,08,08,06,51,15.60
2018,08,08,06,52,15.60
2018,08,08,06,53,15.60
2018,08,08,06,54,15.60
2018,08,08,06,55,15.60
2018,08,08,06,56,15.60
2018,08,08,06,57,15.60
2018,08,08,06,58,15.60
2018,08,08,06,59,15.60
2018,08,08,07,00,15.60
2018,08,08,07,01,15.70
2018,08,08,07,02,15.70
2018,08,08,07,03,15.70
2018,08,08,07,04,15.70
2018,08,08,07,05,15.70
2018,08,08,07,06,15.70
2018,08,08,07,07,15.70
2018,08,08,07,08,15.70
2018,08,08,07,09,15.70
2018,08,08,07,10,15.70
2018,08,08,07,11,15.70
2018,08,08,07,12,15.80
2018,08,08,07,13,15.80
2018,08,08,07,14,15.80
2018,08,08,07,15,15.80
2018,08,08,07,16,15.80
2018,08,08,07,17,15.90
2018,08,08,07,18,15.90
2018,08,08,07,19,15.90
2018,08,08,07,20,15.90
2018,08,08,07,21,15.90
2018,08,08,07,22,16.00
2018,08,08,07,23,16.00
2018,08,08,07,24,16.00
2018,08,08,07,25,16.00
2018,08,08,07,26,16.10
2018,08,08,07,27,16.10
2018,08,08,07,28,16.10
2018,08,08,07,29,16.10
2018,08,08,07,30,16.10
2018,08,08,07,31,16.20
2018,08,08,07,32,16.20
2018,08,08,07,33,16.20
2018,08,08,07,34,16.20
2018,08,08,07,35,16.20
2018,08,08,07,36,16.30
2018,08,08,07,37,16.30
2018,08,08,07,38,16.30
2018,08,08,07,39,16.30
2018,08,08,07,40,16.30
2018,08,08,07,41,16.30
2018,08,08,07,42,16.40
2018,08,08,07,43,16.40
2018,08,08,07,44,16.40
2018,08,08,07,45,16.50
2018,08,08,07,46,16.50
2018,08,08,07,47,16.60
2018,08,08,07,48,16.60
2018,08,08,07,49,16.60
2018,08,08,07,50,16.70
2018,08,08,07,51,16.70
2018,08,08,07,52,16.80
2018,08,08,07,53,16.80
2018,08,08,07,54,16.90
2018,08,08,07,55,16.90
2018,08,08,07,56,17.00
2018,08,08,07,57,17.00
2018,08,08,07,58,17.10
2018,08,08,07,59,17.10
2018,08,08,08,00,17.20
2018,08,08,08,01,17.20
2018,08,08,08,02,17.30
2018,08,08,08,03,17.30
2018,08,08,08,04,17.40
2018,08,08,08,05,17.40
2018,08,08,08,06,17.50
2018,08,08,08,07,17.50
2018,08,08,08,08,17.60
2018,08,08,08,09,17.70
2018,08,08,08,10,17.80
2018,08,08,08,11,17.90
2018,08,08,08,12,17.90
2018,08,08,08,13,18.00
2018,08,08,08,14,18.00
2018,08,08,08,15,18.10
2018,08,08,08,16,18.30
2018,08,08,08,17,18.30
2018,08,08,08,18,18.50
2018,08,08,08,19,18.60
2018,08,08,08,20,18.70
2018,08,08,08,21,18.80
2018,08,08,08,22,18.90
2018,08,08,08,23,19.00
2018,08,08,08,24,19.10
2018,08,08,08,25,19.20
2018,08,08,08,26,19.30
2018,08,08,08,27,19.40
2018,08,08,08,28,19.40
2018,08,08,08,29,19.50
2018,08,08,08,30,19.50
2018,08,08,08,31,19.60
2018,08,08,08,32,19.60
2018,08,08,08,33,19.60
2018,08,08,08,34,19.70
2018,08,08,08,35,19.70
2018,08,08,08,36,19.70
2018,08,08,08,37,19.80
2018,08,08,08,38,19.80
2018,08,08,08,39,19.80
2018,08,08,08,40,19.90
2018,08,08,08,41,20.00
2018,08,08,08,42,20.10
2018,08,08,08,43,20.20
2018,08,08,08,44,20.20
2018,08,08,08,45,20.30
2018,08,08,08,46,20.50
2018,08,08,08,47,20.60
2018,08,08,08,48,20.70
2018,08,08,08,49,20.70
2018,08,08,08,50,20.80
2018,08,08,08,51,20.80
2018,08,08,08,52,20.90
2018,08,08,08,53,21.00
2018,08,08,08,54,21.00
2018,08,08,08,55,21.10
2018,08,08,08,56,21.10
2018,08,08,08,57,21.10
2018,08,08,08,58,21.20
2018,08,08,08,59,21.20
2018,08,08,09,00,21.30
2018,08,08,09,01,21.30
2018,08,08,09,02,21.40
2018,08,08,09,03,21.50
2018,08,08,09,04,21.50
2018,08,08,09,05,21.60
2018,08,08,09,06,21.60
2018,08,08,09,07,21.60
2018,08,08,09,08,21.70
2018,08,08,09,09,21.70
2018,08,08,09,10,21.80
2018,08,08,09,11,21.90
2018,08,08,09,12,21.90
2018,08,08,09,13,22.00
2018,08,08,09,14,22.10
2018,08,08,09,15,22.10
2018,08,08,09,16,22.20
2018,08,08,09,17,22.30
2018,08,08,09,18,22.30
2018,08,08,09,19,22.30
2018,08,08,09,20,22.40
2018,08,08,09,21,22.40
2018,08,08,09,22,22.50
2018,08,08,09,23,22.50
2018,08,08,09,24,22.60
2018,08,08,09,25,22.60
2018,08,08,09,26,22.70
2018,08,08,09,27,22.80
2018,08,08,09,28,22.80
2018,08,08,09,29,22.90
2018,08,08,09,30,23.00
2018,08,08,09,31,23.10
2018,08,08,09,32,23.20
2018,08,08,09,33,23.20
2018,08,08,09,34,23.30
2018,08,08,09,35,23.30
2018,08,08,09,36,23.40
2018,08,08,09,37,23.40
2018,08,08,09,38,23.50
2018,08,08,09,39,23.60
2018,08,08,09,40,23.70
2018,08,08,09,41,23.70
2018,08,08,09,42,23.80
2018,08,08,09,43,23.90
2018,08,08,09,44,23.90
2018,08,08,09,45,24.00
2018,08,08,09,46,24.00
2018,08,08,09,47,24.10
2018,08,08,09,48,24.10
2018,08,08,09,49,24.20
2018,08,08,09,50,24.20
2018,08,08,09,51,24.20
2018,08,08,09,52,24.20
2018,08,08,09,53,24.30
2018,08,08,09,54,24.30
2018,08,08,09,55,24.30
2018,08,08,09,56,24.40
2018,08,08,09,57,24.40
2018,08,08,09,58,24.50
2018,08,08,09,59,24.50
2018,08,08,10,00,24.60
2018,08,08,10,01,24.60
2018,08,08,10,02,24.60
2018,08,08,10,03,24.70
2018,08,08,10,04,24.70
2018,08,08,10,05,24.80
2018,08,08,10,06,24.90
2018,08,08,10,07,24.90
2018,08,08,10,08,25.00
2018,08,08,10,09,25.10
2018,08,08,10,10,25.10
2018,08,08,10,11,25.20
2018,08,08,10,12,25.20
2018,08,08,10,13,25.20
2018,08,08,10,14,25.20
2018,08,08,10,15,25.30
2018,08,08,10,16,25.30
2018,08,08,10,17,25.30
2018,08,08,10,18,25.40
2018,08,08,10,19,25.40
2018,08,08,10,20,25.40
2018,08,08,10,21,25.40
2018,08,08,10,22,25.50
2018,08,08,10,23,25.50
2018,08,08,10,24,25.50
2018,08,08,10,25,25.60
2018,08,08,10,26,25.60
2018,08,08,10,27,25.60
2018,08,08,10,28,25.70
2018,08,08,10,29,25.70
2018,08,08,10,30,25.70
2018,08,08,10,31,25.70
2018,08,08,10,32,25.80
2018,08,08,10,33,25.80
2018,08,08,10,34,25.80
2018,08,08,10,35,25.80
2018,08,08,10,36,25.80
2018,08,08,10,37,25.80
2018,08,08,10,38,25.90
2018,08,08,10,39,25.90
2018,08,08,10,40,25.90
2018,08,08,10,41,25.90
2018,08,08,10,42,25.90
2018,08,08,10,43,25.90
2018,08,08,10,44,25.90
2018,08,08,10,45,25.90
2018,08,08,10,46,25.90
2018,08,08,10,47,25.90
2018,08,08,10,48,26.00
2018,08,08,10,49,26.00
2018,08,08,10,50,26.00
2018,08,08,10,51,26.00
2018,08,08,10,52,26.10
2018,08,08,10,53,26.10
2018,08,08,10,54,26.10
2018,08,08,10,55,26.10
2018,08,08,10,56,26.20
2018,08,08,10,57,26.20
2018,08,08,10,58,26.20
2018,08,08,10,59,26.30
2018,08,08,11,00,26.30
2018,08,08,11,01,26.40
2018,08,08,11,02,26.40
2018,08,08,11,03,26.50
2018,08,08,11,04,26.50
2018,08,08,11,05,26.50
2018,08,08,11,06,26.60
2018,08,08,11,07,26.60
2018,08,08,11,08,26.60
2018,08,08,11,09,26.60
2018,08,08,11,10,26.60
2018,08,08,11,11,26.70
2018,08,08,11,12,26.70
2018,08,08,11,13,26.80
2018,08,08,11,14,26.80
2018,08,08,11,15,26.80
2018,08,08,11,16,26.80
2018,08,08,11,17,26.80
2018,08,08,11,18,26.90
2018,08,08,11,19,27.00
2018,08,08,11,20,27.00
2018,08,08,11,21,27.10
2018,08,08,11,22,27.20
2018,08,08,11,23,27.20
2018,08,08,11,24,27.30
2018,08,08,11,25,27.30
2018,08,08,11,26,27.30
2018,08,08,11,27,27.40
2018,08,08,11,28,27.40
2018,08,08,11,29,27.40
2018,08,08,11,30,27.50
2018,08,08,11,31,27.50
2018,08,08,11,32,27.50
2018,08,08,11,33,27.60
2018,08,08,11,34,27.60
2018,08,08,11,35,27.60
2018,08,08,11,36,27.60
2018,08,08,11,37,27.70
2018,08,08,11,38,27.70
2018,08,08,11,39,27.70
2018,08,08,11,40,27.80
2018,08,08,11,41,27.80
2018,08,08,11,42,27.80
2018,08,08,11,43,27.90
2018,08,08,11,44,27.90
2018,08,08,11,45,27.90
2018,08,08,11,46,28.00
2018,08,08,11,47,28.00
2018,08,08,11,48,28.00
2018,08,08,11,49,28.10
2018,08,08,11,50,28.10
2018,08,08,11,51,28.10
2018,08,08,11,52,28.10
2018,08,08,11,53,28.10
2018,08,08,11,54,28.10
2018,08,08,11,55,28.20
2018,08,08,11,56,28.20
2018,08,08,11,57,28.10
2018,08,08,11,58,28.10
2018,08,08,11,59,28.20
2018,08,08,12,00,28.20
2018,08,08,12,01,28.20
2018,08,08,12,02,28.20
2018,08,08,12,03,28.20
2018,08,08,12,04,28.20
2018,08,08,12,05,28.20
2018,08,08,12,06,28.20
2018,08,08,12,07,28.20
2018,08,08,12,08,28.10
2018,08,08,12,09,28.10
2018,08,08,12,10,28.10
2018,08,08,12,11,28.10
2018,08,08,12,12,28.10
2018,08,08,12,13,28.10
2018,08,08,12,14,28.20
2018,08,08,12,15,28.20
2018,08,08,12,16,28.20
2018,08,08,12,17,28.20
2018,08,08,12,18,28.20
2018,08,08,12,19,28.20
2018,08,08,12,20,28.20
2018,08,08,12,21,28.30
2018,08,08,12,22,28.30
2018,08,08,12,23,28.30
2018,08,08,12,24,28.40
2018,08,08,12,25,28.40
2018,08,08,12,26,28.40
2018,08,08,12,27,28.40
2018,08,08,12,28,28.50
2018,08,08,12,29,28.50
2018,08,08,12,30,28.50
2018,08,08,12,31,28.60
2018,08,08,12,32,28.60
2018,08,08,12,33,28.60
2018,08,08,12,34,28.70
2018,08,08,12,35,28.70
2018,08,08,12,36,28.80
2018,08,08,12,37,28.80
2018,08,08,12,38,28.80
2018,08,08,12,39,28.90
2018,08,08,12,40,28.90
2018,08,08,12,41,28.90
2018,08,08,12,42,29.00
2018,08,08,12,43,29.00
2018,08,08,12,44,29.00
2018,08,08,12,45,28.90
2018,08,08,12,46,29.00
2018,08,08,12,47,28.90
2018,08,08,12,48,28.90
2018,08,08,12,49,28.90
2018,08,08,12,50,28.90
2018,08,08,12,51,28.80
2018,08,08,12,52,28.80
2018,08,08,12,53,28.80
2018,08,08,12,54,28.80
2018,08,08,12,55,28.80
2018,08,08,12,56,28.90
2018,08,08,12,57,29.00
2018,08,08,12,58,29.00
2018,08,08,12,59,29.10
2018,08,08,13,00,29.00
2018,08,08,13,01,29.00
2018,08,08,13,02,29.00
2018,08,08,13,03,28.90
2018,08,08,13,04,28.90
2018,08,08,13,05,28.80
2018,08,08,13,06,28.80
2018,08,08,13,07,28.90
2018,08,08,13,08,28.90
2018,08,08,13,09,28.90
2018,08,08,13,10,29.00
2018,08,08,13,11,29.10
2018,08,08,13,12,29.20
2018,08,08,13,13,29.30
2018,08,08,13,14,29.40
2018,08,08,13,15,29.50
2018,08,08,13,16,29.60
2018,08,08,13,17,29.70
2018,08,08,13,18,29.80
2018,08,08,13,19,29.90
2018,08,08,13,20,30.00
2018,08,08,13,21,30.10
2018,08,08,13,22,30.10
2018,08,08,13,23,30.20
2018,08,08,13,24,30.20
2018,08,08,13,25,30.20
2018,08,08,13,26,30.30
2018,08,08,13,27,30.30
2018,08,08,13,28,30.30
2018,08,08,13,29,30.30
2018,08,08,13,30,30.20
2018,08,08,13,31,30.20
2018,08,08,13,32,30.30
2018,08,08,13,33,30.40
2018,08,08,13,34,30.60
2018,08,08,13,35,30.70
2018,08,08,13,36,30.70
2018,08,08,13,37,30.80
2018,08,08,13,38,30.80
2018,08,08,13,39,30.70
2018,08,08,13,40,30.70
2018,08,08,13,41,30.80
2018,08,08,13,42,30.90
2018,08,08,13,43,31.10
2018,08,08,13,44,31.20
2018,08,08,13,45,31.20
2018,08,08,13,46,31.30
2018,08,08,13,47,31.40
2018,08,08,13,48,31.40
2018,08,08,13,49,31.50
2018,08,08,13,50,31.60
2018,08,08,13,51,31.70
2018,08,08,13,52,31.80
2018,08,08,13,53,31.90
2018,08,08,13,54,31.90
2018,08,08,13,55,32.00
2018,08,08,13,56,32.00
2018,08,08,13,57,32.00
2018,08,08,13,58,32.00
2018,08,08,13,59,32.10
2018,08,08,14,00,32.20
2018,08,08,14,01,32.30
2018,08,08,14,02,32.40
2018,08,08,14,03,32.50
2018,08,08,14,04,32.60
2018,08,08,14,05,32.60
2018,08,08,14,06,32.40
2018,08,08,14,07,32.30
2018,08,08,14,08,32.30
2018,08,08,14,09,32.30
2018,08,08,14,10,32.20
2018,08,08,14,11,32.20
2018,08,08,14,12,32.30
2018,08,08,14,13,32.40
2018,08,08,14,14,32.50
2018,08,08,14,15,32.60
2018,08,08,14,16,32.70
2018,08,08,14,17,32.80
2018,08,08,14,18,32.90
2018,08,08,14,19,32.90
2018,08,08,14,20,33.00
2018,08,08,14,21,33.00
2018,08,08,14,22,33.10
2018,08,08,14,23,33.10
2018,08,08,14,24,33.00
2018,08,08,14,25,32.80
2018,08,08,14,26,32.80
2018,08,08,14,27,32.70
2018,08,08,14,28,32.80
2018,08,08,14,29,32.80
2018,08,08,14,30,32.80
2018,08,08,14,31,32.80
2018,08,08,14,32,32.70
2018,08,08,14,33,32.60
2018,08,08,14,34,32.40
2018,08,08,14,35,32.30
2018,08,08,14,36,32.30
2018,08,08,14,37,32.30
2018,08,08,14,38,32.30
2018,08,08,14,39,32.20
2018,08,08,14,40,32.20
2018,08,08,14,41,32.10
2018,08,08,14,42,32.10
2018,08,08,14,43,32.10
2018,08,08,14,44,32.10
2018,08,08,14,45,32.30
2018,08,08,14,46,32.40
2018,08,08,14,47,32.50
2018,08,08,14,48,32.40
2018,08,08,14,49,32.50
2018,08,08,14,50,32.50
2018,08,08,14,51,32.60
2018,08,08,14,52,32.70
2018,08,08,14,53,32.70
2018,08,08,14,54,32.60
2018,08,08,14,55,32.50
2018,08,08,14,56,32.60
2018,08,08,14,57,32.60
2018,08,08,14,58,32.60
2018,08,08,14,59,32.70
2018,08,08,15,00,32.80
2018,08,08,15,01,32.80
2018,08,08,15,02,32.80
2018,08,08,15,03,32.90
2018,08,08,15,04,33.00
2018,08,08,15,05,33.10
2018,08,08,15,06,33.20
2018,08,08,15,07,33.20
2018,08,08,15,08,33.20
2018,08,08,15,09,33.30
2018,08,08,15,10,33.30
2018,08,08,15,11,33.30
2018,08,08,15,12,33.20
2018,08,08,15,13,33.10
2018,08,08,15,14,33.10
2018,08,08,15,15,33.10
2018,08,08,15,16,33.10
2018,08,08,15,17,33.10
2018,08,08,15,18,33.10
2018,08,08,15,19,33.10
2018,08,08,15,20,33.00
2018,08,08,15,21,32.90
2018,08,08,15,22,32.80
2018,08,08,15,23,32.70
2018,08,08,15,24,32.80
2018,08,08,15,25,32.80
2018,08,08,15,26,32.90
2018,08,08,15,27,32.90
2018,08,08,15,28,32.90
2018,08,08,15,29,32.90
2018,08,08,15,30,32.90
2018,08,08,15,31,32.80
2018,08,08,15,32,32.80
2018,08,08,15,33,32.90
2018,08,08,15,34,32.90
2018,08,08,15,35,32.80
2018,08,08,15,36,32.60
2018,08,08,15,37,32.60
2018,08,08,15,38,32.40
2018,08,08,15,39,32.40
2018,08,08,15,40,32.40
2018,08,08,15,41,32.50
2018,08,08,15,42,32.50
2018,08,08,15,43,32.40
2018,08,08,15,44,32.40
2018,08,08,15,45,32.30
2018,08,08,15,46,32.30
2018,08,08,15,47,32.20
2018,08,08,15,48,32.20
2018,08,08,15,49,32.20
2018,08,08,15,50,32.30
2018,08,08,15,51,32.30
2018,08,08,15,52,32.30
2018,08,08,15,53,32.20
2018,08,08,15,54,32.20
2018,08,08,15,55,32.20
2018,08,08,15,56,32.20
2018,08,08,15,57,32.20
2018,08,08,15,58,32.20
2018,08,08,15,59,32.10
2018,08,08,16,00,32.10
2018,08,08,16,01,32.10
2018,08,08,16,02,32.10
2018,08,08,16,03,32.10
2018,08,08,16,04,32.10
2018,08,08,16,05,32.10
2018,08,08,16,06,32.10
2018,08,08,16,07,32.10
2018,08,08,16,08,32.10
2018,08,08,16,09,32.00
2018,08,08,16,10,32.00
2018,08,08,16,11,32.00
2018,08,08,16,12,31.90
2018,08,08,16,13,31.90
2018,08,08,16,14,31.90
2018,08,08,16,15,31.90
2018,08,08,16,16,31.90
2018,08,08,16,17,31.90
2018,08,08,16,18,31.90
2018,08,08,16,19,31.90
2018,08,08,16,20,31.90
2018,08,08,16,21,31.80
2018,08,08,16,22,31.80
2018,08,08,16,23,31.80
2018,08,08,16,24,31.80
2018,08,08,16,25,31.80
2018,08,08,16,26,31.80
2018,08,08,16,27,31.80
2018,08,08,16,28,31.80
2018,08,08,16,29,31.80
2018,08,08,16,30,31.80
2018,08,08,16,31,31.80
2018,08,08,16,32,31.90
2018,08,08,16,33,31.90
2018,08,08,16,34,31.90
2018,08,08,16,35,31.90
2018,08,08,16,36,32.00
2018,08,08,16,37,32.00
2018,08,08,16,38,32.00
2018,08,08,16,39,32.00
2018,08,08,16,40,32.00
2018,08,08,16,41,32.00
2018,08,08,16,42,32.00
2018,08,08,16,43,32.00
2018,08,08,16,44,32.10
2018,08,08,16,45,32.10
2018,08,08,16,46,32.10
2018,08,08,16,47,32.10
2018,08,08,16,48,32.10
2018,08,08,16,49,32.10
2018,08,08,16,50,32.20
2018,08,08,16,51,32.20
2018,08,08,16,52,32.30
2018,08,08,16,53,32.30
2018,08,08,16,54,32.30
2018,08,08,16,55,32.30
2018,08,08,16,56,32.40
2018,08,08,16,57,32.40
2018,08,08,16,58,32.50
2018,08,08,16,59,32.60
2018,08,08,17,00,32.60
2018,08,08,17,01,32.70
2018,08,08,17,02,32.70
2018,08,08,17,03,32.70
2018,08,08,17,04,32.70
2018,08,08,17,05,32.70
2018,08,08,17,06,32.60
2018,08,08,17,07,32.60
2018,08,08,17,08,32.60
2018,08,08,17,09,32.50
2018,08,08,17,10,32.40
2018,08,08,17,11,32.30
2018,08,08,17,12,32.30
2018,08,08,17,13,32.30
2018,08,08,17,14,32.20
2018,08,08,17,15,32.10
2018,08,08,17,16,32.10
2018,08,08,17,17,32.00
2018,08,08,17,18,32.00
2018,08,08,17,19,32.00